Retour au catalogue

BELINTERSAT 1

ActifCommunicationsGEO
NORAD 41238·PAYLOAD·🇧🇾 Belarus

Lancé Jan 15, 2016 depuis Xichang Satellite Launch Center

Loading…

TLE

FraisSource: Space-Track

Époque: Sep 14, 2026, 14:02 UTC

1 41238U 16001A   26257.58532772  .00000099  00000-0  00000-0 0  9995
2 41238   0.0249  83.4511 0000681  19.2798 153.0749  1.00273352 39136

Suivez BELINTERSAT 1 en temps réel avec AllMySat

Download on the App Store